Location: Aalen
(48.8330°N, 10.1000°E)
Time: 20:00:23
(UTC+02:00)

S-56A Canister/Altair - Pass Details

Date: 02 August 2021
Orbit: 632 x 2500 km, 38.9° (Epoch: 19 September)

Event Time Altitude Azimuth Distance (km) Brightness Sun altitude
Rises 14:30:25 0° 207° (SSW) 5,155 12.3 56.2°
Reaches altitude 10° 14:34:02 10° 197° (SSW) 4,410 12.1 55.9°
Maximum altitude 14:44:29 32° 142° (SE) 3,489 11.5 55.0°
Drops below altitude 10° 14:56:36 10° 88° (E) 5,168 11.6 53.8°
Sets 15:01:14 0° 80° (E) 6,150 11.9 53.3°
